CZ-6A DEB, 54388

Orbit data source: Space-Track

CZ-6A DEB, 54388 is space debris in SSO originally from a launch on Fri, 11 Nov 2022 UTC launched from the Taiyaun Space Center, China (TSC). Debris objects in space refer to the collection of defunct objects orbiting the Earth. Examples of debris include non-operational satellites, rocket bodies, and fragments generated from explosions, collisions, or faulty payload assembly.

Loading next visibility...
Identifier
54388, 2022-151DL
Orbit
SSO
Country
Flag of CNCN / PRC
Related business
Manufacturer
SAST
Mission
Spacecraft
Bus & Motor
Unknown
Mass
Unknown
Launch date (UTC)
2022-11-11 (4 years ago)
Launch vehicle
Unknown
Launch site
Taiyaun Space Center, China (TSC)
Object type
Payload
Rocket body
Debris
Shape & HBR
Unknown shape, 0.1 m
Radar Cross Section
Small (<0.1 m²)

Expand to show TLE details & history
Last TLE update: 11 hours ago

TLE from 11 hours ago
0 CZ-6A DEB
1 54388U 22151DL  26249.43758662  .00000333  00000-0  22164-3 0  9990
2 54388  98.8855 236.2038 0087362 160.7713 199.6787 14.05961160195036
Epoch: 2026-09-06T10:30Z
TLE epoch observation values (Epoch: 2026-09-06T10:30:07.483Z)
Latitude
0.00001°
Longitude
93.13991°
Altitude
935.839 km
Speed
7.353 km/s
True Right ascension
15h 44m 48s
True Declination
0° 00' 00"
Sunlit
Object was in daylight at epoch
Visualization orbit readout
Latitude
Unknown
Longitude
Unknown
Altitude
Unknown
Speed
Unknown
Apparent Right ascension
Unknown
Apparent Declination
Unknown
Sunlit
N/A
Visualization observer readout
Local Sidereal Time
13:09:14
Azimuth
Unknown
Elevation
Unknown
Doppler factor
Unknown
Orbital elements
Apogee altitude
933.736 km
Perigee altitude
807.086 km
Semi-major axis
7,248.548 km
Eccentricity
0.00874
Inclination
98.8855°
RAAN
236.2038°
Arg. of periapsis
160.7713°
True anomaly
199.34502°
Mean anomaly
199.6787°
Eccentric anomaly
199.51152°
Mean motion
3.51695 °/min
Orbital period
102.36 mins
BSTAR
0.00022164
Loading maneuver chart data...
Computing Atmospheric mass density...
Loading historical data...
Loading historical data...
Loading historical data...
Loading historical data...
Loading historical data...
Loading historical data...
Loading historical data...

Documentation

Showing up to 5 results
|